Weather History for Mmabatho, South Africa

Change the Weather History Date:

Friday, February 15, 2013

  Actual Average Record
Temperature  
Mean Temperature 78 °F -  
Max Temperature 92 °F - - ()
Min Temperature 63 °F - - ()
Cooling Degree Days 12    
Growing Degree Days 28 (Base 50)    
Moisture  
Dew Point 54 °F    
Average Humidity 46    
Maximum Humidity 77    
Minimum Humidity 17    
Precipitation  
Precipitation 0.08 in - - ()
Sea Level Pressure  
Sea Level Pressure 29.98 in    
Wind  
Wind Speed 5 mph ()    
Max Wind Speed 22 mph    
Max Gust Speed 21 mph    
Visibility 11.1 miles    
Events      
T = Trace of Precipitation, MM = Missing Value Source: Averaged Metar Reports

Daily Weather History Graph

Daily Weather History Graph

Search for Another Location

Airport:

Trip Planner

Search our weather history database for the weather conditions in past years. The results will help you decide how hot, cold, wet, or windy it might be!

Date:

Astronomy

Feb. 15, 2013 Rise Set
Actual Time 6:03 AM SAST 7:00 PM SAST
Civil Twilight 5:39 AM SAST 7:24 PM SAST
Nautical Twilight 5:11 AM SAST 7:52 PM SAST
Astronomical Twilight 4:42 AM SAST 8:20 PM SAST
Moon 10:47 AM SAST (2/15) 10:13 PM SAST (2/15)
Length of Visible Light 13h 44m
Length of Day
12h 56m
Waxing Crescent, 27% of the Moon is Illuminated
Feb 15
Waxing Crescent
Feb 17
First Quarter
Feb 25
Full
Mar 4
Last Quarter
Mar 11
New

Hourly Weather History & Observations

Time (SAST) Temp. Heat Index Dew Point Humidity Pressure Visibility Wind Dir Wind Speed Gust Speed Precip Events Conditions
12:00 AM 71.6 °F - 59.0 °F 64% 29.95 in - NNE 4.6 mph - N/A   Unknown
1:00 AM 69.8 °F - 57.2 °F 64% 29.95 in - NNE 4.6 mph - N/A   Unknown
2:00 AM 67 °F - 57 °F 62%  in - SSE 3.5 mph - -  
2:00 AM 66.2 °F - 55.4 °F 68% 29.95 in - SSE 2.3 mph - N/A   Unknown
3:00 AM 62.6 °F - 55.4 °F 77% 29.98 in - South 6.9 mph - N/A   Unknown
4:00 AM 71.6 °F - 55.4 °F 57% 29.98 in - SSE 6.9 mph - N/A   Unknown
5:00 AM 69 °F - 57 °F 56%  in 19 mi SSE 6.9 mph - -   Scattered Clouds
5:00 AM 68.0 °F - 55.4 °F 64% 29.98 in - SSE 6.9 mph - N/A   Clear
6:00 AM 68.0 °F - 53.6 °F 60% 29.98 in - South 6.9 mph - N/A   Clear
7:00 AM 69.8 °F - 55.4 °F 60% 30.01 in 6.2 mi ESE 2.3 mph - N/A   Scattered Clouds
7:34 AM 73.4 °F - 55.4 °F 53% 30.01 in - North 4.6 mph - N/A   Clear
8:00 AM 75 °F - 57 °F 43%  in 19 mi NNE 9.2 mph - -   Partly Cloudy
8:00 AM 75.2 °F - 55.4 °F 50% 30.01 in - NNE 9.2 mph - N/A   Clear
9:00 AM 77.0 °F - 57.2 °F 50% 30.01 in - NNE 10.4 mph - N/A   Clear
10:00 AM 80.6 °F 80.5 °F 55.4 °F 42% 30.01 in - NNE 8.1 mph - N/A   Clear
11:00 AM 85 °F - 52 °F 22%  in 19 mi NNE 4.6 mph - -   Scattered Clouds
11:00 AM 84.2 °F - 51.8 °F 33% 30.01 in - NNE 3.5 mph - N/A   Clear
12:00 PM 87.8 °F - 51.8 °F 29% 30.01 in - NNE 4.6 mph - N/A   Unknown
1:00 PM 89.6 °F - 51.8 °F 27% 29.98 in 6.2 mi NNE 3.5 mph - N/A   Partly Cloudy
2:00 PM 89.6 °F - 51.8 °F 27% 29.98 in 6.2 mi NNW 4.6 mph - N/A   Partly Cloudy
3:00 PM 91.4 °F - 50.0 °F 24% 29.92 in 6.2 mi NW 11.5 mph - N/A   Partly Cloudy
4:00 PM 91.4 °F - 48.2 °F 23% 29.92 in 6.2 mi West 3.5 mph - N/A   Partly Cloudy
5:00 PM 92 °F - 53 °F 17%  in 19 mi WNW 3.5 mph - -   Scattered Clouds
5:00 PM 91.4 °F - 51.8 °F 26% 29.92 in 6.2 mi WNW 3.5 mph - N/A   Partly Cloudy
7:00 PM 86.0 °F 84.5 °F 55.4 °F 35% 29.92 in 6.2 mi NW 3.5 mph - N/A   Partly Cloudy
8:00 PM 81 °F - 54 °F 29%  in 19 mi North 8.1 mph - -   Scattered Clouds
8:00 PM 80.6 °F 80.3 °F 53.6 °F 39% 29.95 in 6.2 mi North 8.1 mph - N/A   Partly Cloudy
9:00 PM 77.0 °F - 53.6 °F 44% 29.98 in - North 5.8 mph - N/A   Unknown
10:00 PM 77.0 °F - 51.8 °F 41% 30.01 in - ENE 5.8 mph 20.7 mph N/A   Unknown
11:00 PM 70 °F - 58 °F 57%  in - SE 21.9 mph - -  
11:00 PM 68.0 °F - 57.2 °F 68% 30.04 in - SE 20.7 mph - N/A   Unknown